Tracking 18823 objects as of 22-October-2017
HD Live streaming from Space Station
objects crossing your sky now

SL-3 DEB

Track SL-3 DEB now!
10-day predictions


NORAD ID: 14928
Int'l Code: 1983-075F
Perigee: 513.4 km
Apogee: 559.5 km
Inclination: 97.9 °
Period: 95.2 minutes
Semi major axis: 6907 km
RCS: 0.0341 m2 (small)
Launch date: July 24, 1983
Source: Commonwealth of Independent States (former USSR) (CIS)
Launch site: TYURATAM MISSILE AND SPACE COMPLEX (TTMTR)

Note: This is SATELLITE DEBRIS
aabbcc
Your satellite tracking list
Your tracking list is empty





NASA's NSSDC Master Catalog

Two Line Element Set (TLE):
1 14928U 83075F   17294.95452566 +.00000569 +00000-0 +36661-4 0  9998
2 14928 097.9050 088.6118 0033371 143.1163 335.1189 15.12247939839243
Source of the keplerian elements: AFSPC